Overview Statistics Trail Chart Weather Telemetry Raw packets
 

This is the latest recevied weather packets stored in our database for station/object IU5GBO-13. If no packets are shown the sender has not sent any weather packets the latest 10 day(s).

<< 30 31 32 33 34 35 36 >>
Time Temp. Humidity Pressure Rain* Wind** Luminosity Snow
1777611974 12.22° C 33% 1025 hPa - - - -
1777611374 11.67° C 34% 1024.8 hPa - - - -
1777610774 10° C 42% 1024.7 hPa - - - -
1777610174 10° C 45% 1024.8 hPa - - - -
1777609574 10° C 43% 1024.8 hPa - - - -
1777608973 10° C 41% 1024.5 hPa - - - -
1777608374 10° C 43% 1024.4 hPa - - - -
1777607773 10° C 42% 1024.3 hPa - - - -
1777607173 10° C 41% 1024.3 hPa - - - -
1777606574 9.44° C 45% 1024.2 hPa - - - -
1777605973 9.44° C 45% 1024.2 hPa - - - -
1777605373 9.44° C 44% 1024.1 hPa - - - -
1777604773 9.44° C 42% 1024 hPa - - - -
1777604174 10° C 41% 1024 hPa - - - -
1777603574 10° C 43% 1024 hPa - - - -
1777602973 10.56° C 44% 1024 hPa - - - -
1777602373 10.56° C 40% 1023.9 hPa - - - -
1777601773 10.56° C 36% 1023.9 hPa - - - -
1777601174 10.56° C 37% 1023.8 hPa - - - -
1777600574 11.11° C 38% 1023.8 hPa - - - -
1777599974 10.56° C 43% 1023.8 hPa - - - -
1777599373 10° C 44% 1023.7 hPa - - - -
1777598773 10.56° C 40% 1023.5 hPa - - - -
1777598173 10.56° C 41% 1023.5 hPa - - - -
1777597573 10.56° C 41% 1023.5 hPa - - - -

* Rain since midnight (hover to see other rain measurements)
** Current wind speed in m/s (hover to see current wind gust speed)